Simultaneous Nadir Overpasses (SNOs) Predictions

Prediction of SNOs between METOP-B and NOAA-19 Satellite Orbit:

Table of predicted SNOs for the next 14.0 days since TLE Epoch: 6/16/2017
Index Date (METOP-B) Time (METOP-B) Lat,Lon (METOP-B) SZA (METOP-B ) Date (NOAA-19) Time (NOAA-19) Lat,Lon (NOAA-19) SZA (NOAA-19 ) Distance(km) Time Diff (sec)
1 06/25/2017 08:42:24 77.27, 54.35 53.87 06/25/2017 08:41:09 77.29, 54.44 53.88 2.72 75
2 06/25/2017 09:33:05 -77.29,-138.27 126.12 06/25/2017 09:32:08 -77.28,-138.27 126.13 0.70 57
3 06/25/2017 10:23:46 77.25, 28.93 53.85 06/25/2017 10:23:10 77.26, 29.04 53.86 3.19 36
4 06/25/2017 11:14:27 -77.27,-163.69 126.14 06/25/2017 11:14:09 -77.26,-163.66 126.15 1.33 18
5 06/25/2017 12:05:08 77.23, 3.50 53.83 06/25/2017 12:05:11 77.24, 3.65 53.84 3.82 3
6 06/25/2017 12:55:49 -77.25, 170.88 126.16 06/25/2017 12:56:10 -77.23, 170.94 126.17 2.09 21
7 06/25/2017 13:46:29 77.26, -21.74 53.86 06/25/2017 13:47:12 77.22, -21.74 53.82 4.50 43
8 06/25/2017 14:37:11 -77.23, 145.46 126.18 06/25/2017 14:38:11 -77.21, 145.55 126.19 2.87 60
9 06/25/2017 15:27:59 76.89, -48.61 53.46 06/25/2017 15:29:06 76.90, -45.82 53.54 70.29 67




NCC Satellite Simultaneous Nadir Overpasses (SNOs) Prediction Service
